Provo, UT

6:16 AM MST on December 18, 2017 (GMT -0700)
Provo Municipal

Weather History for KPVU - March, 2014

Change the Weather History Date:

Tuesday, March 4, 2014

  Actual Average Record
Temperature  
Mean Temperature 38 °F -  
Max Temperature 44 °F 44 °F 66 °F (1987)
Min Temperature 33 °F 26 °F 11 °F (1985)
Degree Days  
Heating Degree Days 26    
Moisture  
Dew Point 33 °F    
Average Humidity 78    
Maximum Humidity 100    
Minimum Humidity 61    
Precipitation  
Precipitation 0.00 in - - ()
Sea Level Pressure  
Sea Level Pressure 30.03 in    
Wind  
Wind Speed 5 mph (ESE)    
Max Wind Speed 22 mph    
Max Gust Speed 25 mph    
Visibility 11 miles    
Events Rain    
Averages and records for this station are not official NWS values.
T = Trace of Precipitation, MM = Missing Value Source: NWS Daily Summary

Daily Weather History Graph

Daily Weather History Graph

Search for Another Location

Airport or City:

Trip Planner

Search our weather history database for the weather conditions in past years. The results will help you decide how hot, cold, wet, or windy it might be!

Date:

Astronomy

Mar. 04, 2014 Rise Set
Actual Time 6:55 AM MST 6:21 PM MST
Civil Twilight 6:28 AM MST 6:49 PM MST
Nautical Twilight 5:57 AM MST 7:20 PM MST
Astronomical Twilight 5:25 AM MST 7:52 PM MST
Moon 8:43 AM MST (3/4) 10:33 PM MST (3/4)
Length of Visible Light 12h 20m
Length of Day
11h 26m
Waxing Crescent, 15% of the Moon is Illuminated
Mar 4
Waxing Crescent
Mar 8
First Quarter
Mar 16
Full
Mar 23
Last Quarter
Mar 30
New

Hourly Weather History & Observations

Time (MST) Temp. Windchill Dew Point Humidity Pressure Visibility Wind Dir Wind Speed Gust Speed Precip Events Conditions
12:15 AM 42.8 °F 38.0 °F 33.8 °F 70% 29.98 in 10.0 mi ESE 8.1 mph - N/A   Clear
12:35 AM 42.8 °F 37.5 °F 33.8 °F 70% 29.98 in 10.0 mi SSE 9.2 mph - N/A   Clear
12:55 AM 42.8 °F 38.0 °F 32.0 °F 66% 29.98 in 10.0 mi SSE 8.1 mph - N/A   Clear
1:15 AM 42.8 °F 41.1 °F 32.0 °F 66% 29.98 in 10.0 mi East 3.5 mph - N/A   Clear
1:35 AM 39.2 °F - 32.0 °F 75% 29.98 in 10.0 mi Calm Calm - N/A   Clear
1:55 AM 42.8 °F 41.1 °F 30.2 °F 61% 29.99 in 10.0 mi ESE 3.5 mph - N/A   Clear
2:15 AM 41.0 °F 36.4 °F 32.0 °F 70% 29.97 in 10.0 mi East 6.9 mph - N/A   Clear
2:35 AM 41.0 °F 36.4 °F 30.2 °F 65% 29.96 in 10.0 mi ESE 6.9 mph - N/A   Clear
2:55 AM 39.2 °F 34.2 °F 30.2 °F 70% 29.96 in 10.0 mi ESE 6.9 mph - N/A   Clear
3:15 AM 39.2 °F 34.2 °F 30.2 °F 70% 29.95 in 10.0 mi ESE 6.9 mph - N/A   Clear
3:35 AM 39.2 °F 34.2 °F 30.2 °F 70% 29.95 in 10.0 mi SE 6.9 mph - N/A   Clear
3:55 AM 37.4 °F 34.9 °F 30.2 °F 75% 29.95 in 10.0 mi East 3.5 mph - N/A   Clear
4:15 AM 39.2 °F 37.0 °F 30.2 °F 70% 29.95 in 10.0 mi ESE 3.5 mph - N/A   Clear
4:35 AM 39.2 °F 35.0 °F 30.2 °F 70% 29.95 in 10.0 mi ESE 5.8 mph - N/A   Clear
4:55 AM 39.2 °F 35.9 °F 30.2 °F 70% 29.94 in 10.0 mi ESE 4.6 mph - N/A   Scattered Clouds
5:15 AM 37.4 °F 33.8 °F 30.2 °F 75% 29.93 in 10.0 mi ESE 4.6 mph - N/A   Partly Cloudy
5:35 AM 37.4 °F - 30.2 °F 75% 29.93 in 10.0 mi Calm Calm - N/A   Mostly Cloudy
5:55 AM 37.4 °F - 28.4 °F 70% 29.93 in 10.0 mi Calm Calm - N/A   Scattered Clouds
6:15 AM 35.6 °F 32.8 °F 30.2 °F 81% 29.92 in 10.0 mi NNE 3.5 mph - N/A   Scattered Clouds
6:35 AM 35.6 °F - 32.0 °F 87% 29.92 in 10.0 mi Calm Calm - N/A   Overcast
6:53 AM 37.4 °F - 30.2 °F 75% 29.93 in 15.0 mi Calm Calm - N/A   Mostly Cloudy
7:53 AM 41.0 °F - 32.0 °F 70% 29.93 in 15.0 mi Calm Calm - N/A   Mostly Cloudy
8:59 AM 42.8 °F - 32.0 °F 66% 29.95 in 15.0 mi Calm Calm - N/A   Overcast
9:57 AM 44.6 °F - 33.8 °F 66% 29.98 in 15.0 mi Calm Calm - N/A   Overcast
10:51 AM 42.8 °F 38.6 °F 37.4 °F 81% 29.99 in 10.0 mi West 6.9 mph - N/A Rain Light Rain
11:52 AM 39.2 °F 29.0 °F 35.6 °F 87% 30.01 in 4.0 mi WNW 21.9 mph 25.3 mph N/A Rain Rain
12:52 PM 39.2 °F 32.0 °F 35.6 °F 87% 30.02 in 7.0 mi NW 11.5 mph - N/A Rain Light Rain
1:54 PM 41.0 °F 33.1 °F 35.6 °F 81% 30.02 in 7.0 mi NW 15.0 mph - N/A   Overcast
2:59 PM 42.8 °F 37.0 °F 35.6 °F 76% 30.02 in 15.0 mi WNW 10.4 mph - N/A   Overcast
3:53 PM 42.8 °F 38.6 °F 37.4 °F 81% 30.06 in 10.0 mi East 6.9 mph - N/A   Overcast
4:49 PM 44.6 °F 43.1 °F 37.4 °F 76% 30.09 in 15.0 mi ESE 3.5 mph - N/A   Mostly Cloudy
5:55 PM 44.6 °F 43.1 °F 33.8 °F 66% 30.10 in 15.0 mi NNW 3.5 mph - N/A   Partly Cloudy
6:55 PM 41.0 °F 39.0 °F 35.6 °F 81% 30.12 in 15.0 mi NNW 3.5 mph - N/A   Partly Cloudy
7:55 PM 37.4 °F - 35.6 °F 93% 30.14 in 15.0 mi Calm Calm - N/A   Partly Cloudy
8:50 PM 37.4 °F - 35.6 °F 93% 30.15 in 15.0 mi Calm Calm - N/A   Partly Cloudy
9:15 PM 37.4 °F 33.8 °F 33.8 °F 87% 30.16 in 10.0 mi SE 4.6 mph - N/A   Clear
9:35 PM 37.4 °F 34.9 °F 33.8 °F 87% 30.16 in 10.0 mi SE 3.5 mph - N/A   Clear
9:55 PM 35.6 °F - 32.0 °F 87% 30.16 in 10.0 mi Calm Calm - N/A   Clear
10:15 PM 35.6 °F - 33.8 °F 93% 30.17 in 10.0 mi Calm Calm - N/A   Clear
10:35 PM 33.8 °F - 32.0 °F 93% 30.18 in 10.0 mi Calm Calm - N/A   Clear
10:55 PM 33.8 °F - 30.2 °F 87% 30.18 in 10.0 mi Calm Calm - N/A   Clear
11:15 PM 35.6 °F - 35.6 °F 100% 30.18 in 10.0 mi Calm Calm - N/A   Clear
11:35 PM 35.6 °F 32.8 °F 32.0 °F 87% 30.18 in 9.0 mi SW 3.5 mph - N/A   Clear
11:55 PM 33.8 °F - 30.2 °F 87% 30.18 in 6.0 mi Calm Calm - N/A   Clear